This is the latest recevied weather packets stored in our database for station/object WE1C. If no packets are shown the sender has not sent any weather packets the latest 1 day(s).
| Time | Temp. | Humidity | Pressure | Rain* | Wind** | Luminosity | Snow |
|---|---|---|---|---|---|---|---|
| 1836274809 | 11.11° C | 70% | 1050 hPa | 0 mm | 0 m/s | 0 W/m² | - |
| 1836274507 | 11.67° C | 67% | 1050 hPa | 0 mm | 0 m/s | 0 W/m² | - |
| 1836274360 | 11.11° C | 69% | 1050.2 hPa | 0 mm | 0 m/s | 0 W/m² | - |
| 1836274204 | 11.67° C | 68% | 1049.9 hPa | 0 mm | 0.45 m/s, 181° | 0 W/m² | - |
| 1836273898 | 11.67° C | 68% | 1050 hPa | 0 mm | 0 m/s | 0 W/m² | - |
| 1778042727 | 16.67° C | 67% | 1039.2 hPa | 0 mm | 1.34 m/s, 191° | 0 W/m² | - |
| 1778042424 | 16.67° C | 67% | 1039 hPa | 0 mm | 1.79 m/s, 180° | 0 W/m² | - |
| 1778042121 | 16.67° C | 67% | 1039.1 hPa | 0 mm | 0.89 m/s, 187° | 0 W/m² | - |
| 1778041819 | 16.67° C | 66% | 1039.2 hPa | 0 mm | 1.34 m/s, 194° | 0 W/m² | - |
| 1778041518 | 16.67° C | 66% | 1039.3 hPa | 0 mm | 0.89 m/s, 197° | 0 W/m² | - |
| 1778041215 | 16.67° C | 67% | 1039.1 hPa | 0 mm | 0.89 m/s, 171° | 0 W/m² | - |
| 1778040914 | 16.67° C | 66% | 1039 hPa | 0 mm | 0.89 m/s, 186° | 0 W/m² | - |
| 1778040610 | 16.67° C | 66% | 1039 hPa | 0 mm | 1.34 m/s, 174° | 0 W/m² | - |
| 1778040308 | 16.67° C | 67% | 1039 hPa | 0 mm | 1.34 m/s, 106° | 0 W/m² | - |
| 1778040004 | 16.67° C | 66% | 1039.2 hPa | 0 mm | 0.89 m/s, 210° | 0 W/m² | - |
| 1778039701 | 16.67° C | 67% | 1039.2 hPa | 0 mm | 1.34 m/s, 182° | 0 W/m² | - |
| 1778039397 | 16.67° C | 67% | 1038.9 hPa | 0 mm | 0.89 m/s, 176° | 0 W/m² | - |
| 1778039095 | 16.67° C | 66% | 1039.1 hPa | 0 mm | 1.34 m/s, 180° | 0 W/m² | - |
| 1778038792 | 16.67° C | 67% | 1039.1 hPa | 0 mm | 1.34 m/s, 220° | 0 W/m² | - |
| 1778038490 | 16.67° C | 66% | 1039.2 hPa | 0 mm | 0.89 m/s, 201° | 0 W/m² | - |
| 1778038186 | 16.67° C | 66% | 1039.2 hPa | 0 mm | 0.89 m/s, 191° | 0 W/m² | - |
| 1778037883 | 16.67° C | 66% | 1039 hPa | 0 mm | 0.89 m/s, 47° | 0 W/m² | - |
| 1778037579 | 16.67° C | 66% | 1038.9 hPa | 0 mm | 1.34 m/s, 295° | 0 W/m² | - |
| 1778037277 | 16.67° C | 66% | 1038.9 hPa | 0 mm | 0.45 m/s, 209° | 0 W/m² | - |
| 1778036975 | 16.67° C | 66% | 1038.9 hPa | 0 mm | 0.45 m/s, 183° | 0 W/m² | - |
* Rain latest hour (hover to see other rain measurements)
** Current wind speed in m/s (hover to see current wind gust speed)